Regional Weather Roundup
Issued by NWS

Home | Current Version | Previous Version | Text Only | Print | Product List | Glossary On
Versions: 1 2 3 4 5 6 7 8 9 10 11 12 13 14 15 16 17 18 19 20 21 22 23 24 25 26 27 28 29 30 31 32 33 34 35 36 37 38 39 40 41 42 43 44 45 46 47 48 49 50
000
ASUS43 KOAX 010710
RWRNE

WEATHER ROUNDUP FOR NEBRASKA
NATIONAL WEATHER SERVICE OMAHA NE
200 AM CDT FRI AUG 01 2014

NOTES: SATELLITE DATA IS BEING USED TO AUGMENT CLOUD COVER ABOVE
       12000 FEET.
       "FAIR" INDICATES FEW OR NO CLOUDS BELOW 12,000 FEET WITH NO
       SIGNIFICANT WEATHER AND/OR OBSTRUCTIONS TO VISIBILITY.

  * THESE STATIONS DO NOT REPORT WEATHER SUCH AS RAIN...SNOW OR FOG.

NEZ001>004-019>022-054>056-010800-
NEBRASKA PANHANDLE

CITY           SKY/WX    TMP DP  RH WIND       PRES   REMARKS
SCOTTSBLUFF    CLEAR     61  51  70 E3        30.19S
ALLIANCE       CLEAR     56  45  66 W3        30.18S
CHADRON        CLEAR     57  48  72 SW7       30.14F
KIMBALL        CLEAR     56  51  82 W5        30.23S
SIDNEY         CLEAR     57  44  62 E3        30.21F
$$

NEZ057>060-069>072-079>082-010800-
SOUTHWEST NEBRASKA

CITY           SKY/WX    TMP DP  RH WIND       PRES   REMARKS
NORTH PLATTE   CLEAR     56  52  86 CALM      30.12F
IMPERIAL       CLEAR     62  53  72 E5        30.15S
LEXINGTON      CLEAR     59  56  91 W6        30.09F
MCCOOK         CLEAR     64  55  72 NW3       30.11S
OGALLALA       CLEAR     55  50  83 W5        30.16S
$$

NEZ005>010-023>029-035>040-094-010800-
NORTH CENTRAL NEBRASKA

CITY           SKY/WX    TMP DP  RH WIND       PRES   REMARKS
VALENTINE      CLEAR     67  59  75 SE5       30.11S
AINSWORTH      CLEAR     60  60  97 S5        30.11F
BROKEN BOW     CLEAR     58  56  93 CALM      30.10F
O`NEILL        CLEAR     63  62  97 CALM      30.09F
ORD            CLEAR     58  57  97 NW5       30.07F
THEDFORD       CLEAR     61  56  82 CALM      30.13F
$$

NEZ041-046>049-061>064-073>077-083>087-010800-
SOUTH CENTRAL NEBRASKA

CITY           SKY/WX    TMP DP  RH WIND       PRES   REMARKS
GRAND ISLAND   CLEAR     63  60  90 N7        30.06F
AURORA         CLEAR     63  63 100 N5        30.04F
HASTINGS       CLEAR     64  59  83 N3        30.05F
HEBRON         CLEAR     67  52  59 W3        30.03S
HOLDREGE       CLEAR     61  58  91 NE6       30.07F
KEARNEY *      CLEAR     64  61  88 NW6       30.08S
YORK           CLEAR     59  59 100 NE5       30.04S
$$

NEZ011>018-030>034-042>045-010800-
NORTHEAST NEBRASKA

CITY           SKY/WX    TMP DP  RH WIND       PRES   REMARKS
NORFOLK        CLEAR     61  58  90 CALM      30.06F
ALBION         CLEAR     60  57  91 CALM      30.07F
BLAIR          LGT RAIN  65  61  86 E8        30.07F
COLUMBUS *     CLEAR     61  55  82 NE5       30.05S
FREMONT        MOCLDY    68  62  79 E6        30.06S
TEKAMAH        PTCLDY    66  60  81 SE8       30.05F
WAYNE          CLEAR     58  56  94 CALM      30.08S
$$

NEZ050>053-065>068-078-088>093-010800-
SOUTHEAST NEBRASKA

CITY           SKY/WX    TMP DP  RH WIND       PRES   REMARKS
LINCOLN        CLEAR     69  58  67 E12       30.04F
OMAHA EPPLEY   LGT RAIN  69  61  75 E5        30.08R
BEATRICE       PTCLDY    65  60  82 SE7       30.04F
FALLS CITY     CLOUDY    67  61  81 CALM      30.06F
NEBRASKA CITY  CLOUDY    66  62  87 E6        30.08S
PLATTSMOUTH    LGT RAIN  65  61  85 S12       30.06F
$$

NEZ044-045-051>053-067-010800-
OMAHA AREA

CITY           SKY/WX    TMP DP  RH WIND       PRES   REMARKS
OMAHA EPPLEY   LGT RAIN  69  61  75 E5        30.08R
BLAIR          LGT RAIN  65  61  86 E8        30.07F
FREMONT        MOCLDY    68  62  79 E6        30.06S
MILLARD        CLOUDY    69  61  75 SE5       30.07R
OFFUTT AFB     MOCLDY    66  65  99 NE7       30.07R
PLATTSMOUTH    LGT RAIN  65  61  85 S12       30.06F
WAHOO          CLOUDY    67  60  78 SE7       30.04S
$$


USA.gov is the U.S. government's official web portal to all federal, state and local government web resources and services.